User: anonymous
Location: Fort Wayne
(41.1310°N, 85.1290°W)
Time: 09:30:59
(UTC-04:00)
Language:

ISS - Orbit

View from above orbital plane
View from above orbital plane
View from above satellite
View from above satellite

Ground track
Ground track

The orbit data is extracted from the following two-line orbital elements,

1 25544U 98067A   14212.19803831  .00003962  00000-0  76093-4 0  8047
2 25544 051.6474 241.4335 0006249 312.6713 161.8863 15.50486115898155
Epoch (UTC): 31 July 2014 04:45:10
Eccentricity: 0.0006249
inclination: 51.6474°
perigee height: 411 km
apogee height: 419 km
right ascension of ascending node: 241.4335°
argument of perigee: 312.6713°
revolutions per day: 15.50486115
mean anomaly at epoch: 161.8863°
orbit number at epoch: 89815

The dashed part of the orbit path shows where the satellite is in the earth's shadow,  

DLR